Location: Kershaw
(34.5481°N, 80.5823°W)
Time: 10:59:22
(UTC+00:00)

Altair - Pass Details

Date: 07 October 2022
Orbit: 1501 x 1682 km, 47.2° (Epoch: 30 November)

Event Time Altitude Azimuth Distance (km) Brightness Sun altitude
Rises 12:54:22 0° 295° (WNW) 4,835 9.5 17.7°
Reaches altitude 10° 12:57:44 10° 302° (WNW) 3,872 9.1 18.4°
Maximum altitude 13:07:05 43° 12° (NNE) 2,216 8.5 20.2°
Drops below altitude 10° 13:16:36 10° 81° (E) 3,944 10.8 22.0°
Sets 13:20:03 0° 89° (E) 4,931 11.2 22.6°
